Milledgeville, GA

8:00 PM EST on December 05, 2016 (GMT -0500)
Baldwin County

Weather History for KMLJ - September, 2013

Change the Weather History Date:

Tuesday, September 17, 2013

  Actual Average (KOKZ) Record (KOKZ)
Temperature  
Mean Temperature 78 °F -  
Max Temperature 84 °F 85 °F 89 °F (2016)
Min Temperature 71 °F 64 °F 64 °F (2015)
Cooling Degree Days 12    
Growing Degree Days 28 (Base 50)    
Moisture  
Dew Point 60 °F    
Average Humidity 61    
Maximum Humidity 94    
Minimum Humidity 33    
Precipitation  
Precipitation 0.00 in - - ()
Sea Level Pressure  
Sea Level Pressure 30.16 in    
Wind  
Wind Speed 3 mph (ENE)    
Max Wind Speed 12 mph    
Max Gust Speed 17 mph    
Visibility 8 miles    
Events      
Averages and records for this station are not official NWS values.
T = Trace of Precipitation, MM = Missing Value Source: NWS Daily Summary

Daily Weather History Graph

Daily Weather History Graph

Search for Another Location

Airport or City:

Trip Planner

Search our weather history database for the weather conditions in past years. The results will help you decide how hot, cold, wet, or windy it might be!

Date:

Astronomy

Sep. 17, 2013 Rise Set
Actual Time 7:17 AM EDT 7:36 PM EDT
Civil Twilight 6:53 AM EDT 8:00 PM EDT
Nautical Twilight 6:24 AM EDT 8:29 PM EDT
Astronomical Twilight 5:54 AM EDT 8:59 PM EDT
Moon 6:20 PM EDT (9/17) 5:15 AM EDT (9/17)
Length of Visible Light 13h 07m
Length of Day
12h 18m
Waxing Gibbous, 96% of the Moon is Illuminated
Sep 17
Waxing Gibbous
Sep 19
Full
Sep 26
Last Quarter
Oct 4
New
Oct 11
First Quarter

Hourly Weather History & Observations

Time (EDT) Temp. Heat Index Dew Point Humidity Pressure Visibility Wind Dir Wind Speed Gust Speed Precip Events Conditions
12:15 AM 73.4 °F - 68.0 °F 83% 30.10 in 10.0 mi Calm Calm - N/A   Clear
12:35 AM 73.4 °F - 69.8 °F 88% 30.11 in 7.0 mi Calm Calm - N/A   Clear
12:55 AM 73.4 °F - 69.8 °F 88% 30.10 in 7.0 mi Calm Calm - N/A   Clear
1:15 AM 75.2 °F - 69.8 °F 83% 30.11 in 7.0 mi Calm Calm - N/A   Clear
1:35 AM 75.2 °F - 71.6 °F 89% 30.10 in 7.0 mi Calm Calm - N/A   Clear
1:55 AM 73.4 °F - 69.8 °F 88% 30.10 in 7.0 mi Calm Calm - N/A   Clear
2:15 AM 73.4 °F - 69.8 °F 88% 30.10 in 7.0 mi Calm Calm - N/A   Clear
2:35 AM 71.6 °F - 69.8 °F 94% 30.09 in 7.0 mi Calm Calm - N/A   Clear
2:55 AM 71.6 °F - 69.8 °F 94% 30.09 in 4.0 mi Calm Calm - N/A   Clear
3:15 AM 73.4 °F - 69.8 °F 88% 30.09 in 5.0 mi Calm Calm - N/A   Clear
3:35 AM 71.6 °F - 69.8 °F 94% 30.09 in 5.0 mi Calm Calm - N/A   Clear
3:55 AM 71.6 °F - 69.8 °F 94% 30.09 in 5.0 mi Calm Calm - N/A   Clear
4:15 AM 71.6 °F - 69.8 °F 94% 30.09 in 5.0 mi Calm Calm - N/A   Clear
4:35 AM 71.6 °F - 69.8 °F 94% 30.10 in 4.0 mi Calm Calm - N/A   Clear
4:55 AM 73.4 °F - 71.6 °F 94% 30.10 in 7.0 mi North 3.5 mph - N/A   Clear
5:15 AM 71.6 °F - 69.8 °F 94% 30.11 in 7.0 mi NNE 3.5 mph - N/A   Clear
5:35 AM 71.6 °F - 69.8 °F 94% 30.11 in 7.0 mi Calm Calm - N/A   Clear
5:55 AM 71.6 °F - 69.8 °F 94% 30.12 in 7.0 mi Calm Calm - N/A   Clear
6:15 AM 71.6 °F - 68.0 °F 88% 30.12 in 7.0 mi NE 4.6 mph - N/A   Clear
6:35 AM 71.6 °F - 68.0 °F 88% 30.13 in 7.0 mi Calm Calm - N/A   Clear
6:55 AM 71.6 °F - 68.0 °F 88% 30.14 in 7.0 mi Calm Calm - N/A   Clear
7:15 AM 71.6 °F - 68.0 °F 88% 30.15 in 10.0 mi East 3.5 mph - N/A   Clear
7:35 AM 71.6 °F - 68.0 °F 88% 30.16 in 7.0 mi East 3.5 mph - N/A   Scattered Clouds
7:55 AM 71.6 °F - 68.0 °F 88% 30.16 in 10.0 mi ENE 3.5 mph - N/A   Mostly Cloudy
8:15 AM 71.6 °F - 66.2 °F 83% 30.17 in 10.0 mi ENE 5.8 mph - N/A   Mostly Cloudy
8:35 AM 71.6 °F - 64.4 °F 78% 30.18 in 10.0 mi East 4.6 mph - N/A   Overcast
8:55 AM 73.4 °F - 60.8 °F 65% 30.19 in 10.0 mi East 4.6 mph - N/A   Overcast
9:15 AM 73.4 °F - 60.8 °F 65% 30.19 in 10.0 mi East 5.8 mph - N/A   Overcast
9:35 AM 73.4 °F - 59.0 °F 61% 30.20 in 4.0 mi ENE 6.9 mph - N/A   Haze
9:55 AM 73.4 °F - 59.0 °F 61% 30.21 in 7.0 mi East 11.5 mph 17.3 mph N/A   Overcast
10:15 AM 73.4 °F - 59.0 °F 61% 30.22 in 1.0 mi East 9.2 mph 16.1 mph N/A   Haze
10:35 AM 75.2 °F - 57.2 °F 53% 30.22 in 0.5 mi East 10.4 mph 16.1 mph N/A   Haze
10:55 AM 77.0 °F - 55.4 °F 47% 30.23 in 0.8 mi East 8.1 mph 17.3 mph N/A   Haze
11:15 AM 78.8 °F - 55.4 °F 44% 30.22 in 2.0 mi East 8.1 mph - N/A   Haze
11:35 AM 78.8 °F - 53.6 °F 42% 30.22 in 5.0 mi ENE 5.8 mph - N/A   Haze
11:55 AM 78.8 °F - 53.6 °F 42% 30.22 in 5.0 mi ENE 6.9 mph - N/A   Haze
12:15 PM 78.8 °F - 53.6 °F 42% 30.22 in 7.0 mi ENE 6.9 mph - N/A   Mostly Cloudy
12:35 PM 80.6 °F 80.3 °F 53.6 °F 39% 30.21 in 4.0 mi East 8.1 mph - N/A   Haze
12:55 PM 80.6 °F - 51.8 °F 37% 30.20 in 4.0 mi East 6.9 mph - N/A   Haze
1:15 PM 82.4 °F - 51.8 °F 35% 30.20 in 2.5 mi East 6.9 mph - N/A   Haze
1:35 PM 82.4 °F - 51.8 °F 35% 30.19 in 1.5 mi East 8.1 mph - N/A   Haze
1:55 PM 82.4 °F - 51.8 °F 35% 30.18 in 0.5 mi East 8.1 mph - N/A   Haze
2:15 PM 84.2 °F - 51.8 °F 33% 30.18 in 10.0 mi East 5.8 mph - N/A   Scattered Clouds
2:35 PM 82.4 °F 81.4 °F 53.6 °F 37% 30.17 in 10.0 mi East 8.1 mph - N/A   Mostly Cloudy
2:55 PM 84.2 °F - 51.8 °F 33% 30.17 in 10.0 mi ENE 4.6 mph - N/A   Mostly Cloudy
3:15 PM 82.4 °F - 51.8 °F 35% 30.17 in 10.0 mi NE 5.8 mph - N/A   Overcast
3:35 PM 82.4 °F - 51.8 °F 35% 30.16 in 10.0 mi East 5.8 mph - N/A   Overcast
3:55 PM 82.4 °F - 51.8 °F 35% 30.15 in 10.0 mi ESE 4.6 mph - N/A   Overcast
4:15 PM 80.6 °F - 51.8 °F 37% 30.15 in 10.0 mi NNE 4.6 mph - N/A   Overcast
4:35 PM 80.6 °F 80.3 °F 53.6 °F 39% 30.15 in 10.0 mi ENE 8.1 mph - N/A   Overcast
4:55 PM 82.4 °F - 51.8 °F 35% 30.14 in 10.0 mi East 6.9 mph - N/A   Overcast
5:15 PM 82.4 °F 81.4 °F 53.6 °F 37% 30.14 in 10.0 mi NE 4.6 mph - N/A   Mostly Cloudy
5:35 PM 80.6 °F - 51.8 °F 37% 30.15 in 10.0 mi ENE 5.8 mph - N/A   Mostly Cloudy
5:55 PM 80.6 °F - 51.8 °F 37% 30.14 in 10.0 mi East 6.9 mph - N/A   Overcast
6:15 PM 80.6 °F - 51.8 °F 37% 30.15 in 10.0 mi ENE 5.8 mph - N/A   Overcast
6:35 PM 80.6 °F - 51.8 °F 37% 30.15 in 10.0 mi East 5.8 mph - N/A   Overcast
6:55 PM 78.8 °F - 53.6 °F 42% 30.15 in 10.0 mi ENE 5.8 mph - N/A   Overcast
7:15 PM 78.8 °F - 53.6 °F 42% 30.16 in 10.0 mi ENE 5.8 mph - N/A   Overcast
7:35 PM 77.0 °F - 53.6 °F 44% 30.16 in 10.0 mi ENE 6.9 mph - N/A   Mostly Cloudy
7:55 PM 77.0 °F - 53.6 °F 44% 30.16 in 10.0 mi ENE 5.8 mph - N/A   Mostly Cloudy
8:15 PM 77.0 °F - 53.6 °F 44% 30.17 in 10.0 mi ENE 5.8 mph - N/A   Overcast
8:35 PM 75.2 °F - 55.4 °F 50% 30.17 in 10.0 mi ENE 4.6 mph - N/A   Overcast
8:55 PM 75.2 °F - 55.4 °F 50% 30.18 in 10.0 mi NE 3.5 mph - N/A   Overcast
9:15 PM 73.4 °F - 55.4 °F 53% 30.18 in 10.0 mi East 3.5 mph - N/A   Overcast
9:35 PM 73.4 °F - 55.4 °F 53% 30.19 in 10.0 mi ENE 4.6 mph - N/A   Overcast
9:55 PM 73.4 °F - 55.4 °F 53% 30.19 in 10.0 mi East 5.8 mph - N/A   Mostly Cloudy
10:15 PM 73.4 °F - 55.4 °F 53% 30.19 in 10.0 mi ENE 4.6 mph - N/A   Scattered Clouds
10:35 PM 73.4 °F - 55.4 °F 53% 30.20 in 10.0 mi ENE 4.6 mph - N/A   Scattered Clouds
10:55 PM 73.4 °F - 55.4 °F 53% 30.20 in 10.0 mi Calm Calm - N/A   Mostly Cloudy
11:15 PM 73.4 °F - 55.4 °F 53% 30.20 in 10.0 mi ENE 3.5 mph - N/A   Overcast
11:35 PM 73.4 °F - 57.2 °F 57% 30.21 in 10.0 mi Calm Calm - N/A   Overcast
11:55 PM 71.6 °F - 57.2 °F 60% 30.20 in 10.0 mi ENE 3.5 mph - N/A   Overcast